GW5308 Weather Reports


time (UTC)temp
C
wind
direction
speed
KPH
gust
KPH
rain 1hr
cm
rain 24hr
cm
rain mn
cm
humidity
%
barometer
mb
20260906190524 31 223 0.0 3.2 0.00 0.33 0.03 80 1010.1
20260906190040 32 0 0.0 3.2 0.00 0.33 0.03 80 1010.0
20260906185519 32 0 0.0 3.2 0.00 1.85 0.03 77 1010.1
20260906185019 33 229 0.0 4.8 0.00 1.85 0.03 76 1010.2
20260906184540 35 0 0.0 4.8 0.00 1.85 0.03 72 1010.2
20260906184019 35 251 0.0 4.8 0.00 1.85 0.03 68 1010.2
20260906183524 35 0 0.0 3.2 0.00 1.85 0.03 71 1010.3
20260906183041 35 0 0.0 1.6 0.00 1.85 0.03 73 1010.3
20260906182522 35 0 0.0 4.8 0.00 1.85 0.03 72 1010.6
20260906182021 35 0 0.0 4.8 0.00 1.85 0.03 72 1010.6
20260906181543 35 316 1.6 4.8 0.00 1.85 0.03 69 1010.6
20260906181019 34 226 0.0 6.4 0.00 1.85 0.03 73 1010.4
20260906180519 35 348 1.6 6.4 0.00 1.85 0.03 69 1010.7
20260906180043 35 0 0.0 4.8 0.00 1.85 0.03 74 1010.7
20260906175519 34 0 0.0 4.8 0.00 1.85 0.03 69 1010.8
20260906175025 35 229 0.0 4.8 0.00 1.85 0.03 73 1010.8
20260906174541 35 0 0.0 4.8 0.00 1.85 0.03 71 1010.9
20260906174021 35 0 0.0 4.8 0.00 1.85 0.03 74 1010.8
20260906173520 34 233 0.0 3.2 0.00 1.85 0.03 75 1010.9
20260906173038 34 187 0.0 4.8 0.00 1.85 0.03 76 1011.0
20260906172521 34 0 0.0 6.4 0.00 1.85 0.03 77 1010.9
20260906172020 33 0 0.0 6.4 0.00 1.85 0.03 73 1010.9
20260906171541 33 0 0.0 4.8 0.00 1.85 0.03 77 1011.1
20260906171022 33 235 1.6 4.8 0.00 1.85 0.03 74 1011.1
20260906170525 34 0 0.0 1.6 0.00 1.85 0.03 75 1011.2
20260906170049 33 0 0.0 4.8 0.00 1.85 0.03 77 1011.3
20260906165517 33 0 0.0 4.8 0.00 2.41 0.03 75 1011.4
20260906165022 33 126 0.0 1.6 0.00 2.41 0.03 77 1011.4
20260906164544 33 0 0.0 4.8 0.00 2.41 0.03 78 1011.4
20260906164020 32 0 0.0 9.7 0.00 2.41 0.03 79 1011.5
20260906163520 32 0 1.6 9.7 0.00 2.41 0.03 79 1011.6
20260906163049 32 0 0.0 4.8 0.00 2.41 0.03 80 1011.6
20260906162520 32 0 0.0 4.8 0.00 2.41 0.03 80 1011.7
20260906162019 32 0 0.0 4.8 0.00 2.41 0.03 81 1011.6
20260906161540 32 0 1.6 6.4 0.00 2.41 0.03 81 1011.7
20260906161019 31 0 0.0 6.4 0.00 2.41 0.03 84 1011.8
20260906160519 31 8 0.0 4.8 0.00 2.41 0.03 86 1011.9
20260906160048 31 0 0.0 4.8 0.00 2.41 0.03 88 1011.9
20260906155524 31 0 0.0 0.0 0.00 2.41 0.03 91 1011.9
20260906155021 30 0 0.0 3.2 0.00 2.41 0.03 96 1011.9
20260906154537 30 0 0.0 3.2 0.00 2.41 0.03 97 1011.9
20260906154021 30 0 0.0 3.2 0.00 2.41 0.03 99 1012.1
20260906153521 30 250 0.0 3.2 0.00 2.41 0.03 98 1012.0
20260906153045 30 0 0.0 3.2 0.00 2.41 0.03 99 1012.0
20260906152522 30 270 0.0 1.6 0.00 2.41 0.03 100 1012.1
20260906152020 30 0 0.0 1.6 0.00 2.41 0.03 100 1012.2
20260906151540 29 0 0.0 1.6 0.00 2.41 0.03 100 1012.3
20260906151019 29 0 0.0 9.7 0.00 2.41 0.03 100 1012.3
20260906150519 29 222 0.0 9.7 0.00 2.41 0.03 100 1012.4
20260906150052 28 122 0.0 4.8 0.00 2.41 0.03 100 1012.3
20260906145520 28 28 0.0 4.8 0.00 2.41 0.03 100 1012.3
20260906145020 28 212 1.6 4.8 0.00 2.41 0.03 100 1012.2
20260906144556 28 255 0.0 1.6 0.00 2.41 0.03 100 1012.2
20260906144020 28 0 0.0 1.6 0.00 2.41 0.03 100 1012.2
20260906143521 28 147 0.0 3.2 0.00 2.41 0.03 100 1012.2
20260906143040 28 0 0.0 3.2 0.00 2.41 0.03 100 1012.2
20260906142519 28 0 0.0 3.2 0.00 2.41 0.03 100 1012.2
20260906142021 28 0 0.0 3.2 0.00 2.41 0.03 100 1012.1
20260906141545 27 0 0.0 3.2 0.00 2.41 0.03 100 1012.1
20260906141019 27 0 0.0 3.2 0.00 2.41 0.03 100 1012.3
20260906140517 27 0 0.0 3.2 0.00 2.41 0.03 100 1012.3
20260906140040 27 0 0.0 3.2 0.00 2.41 0.03 100 1012.3
20260906135520 27 0 0.0 3.2 0.00 2.41 0.03 100 1012.3
20260906135020 27 0 0.0 3.2 0.00 2.41 0.03 100 1012.4
20260906134542 27 0 0.0 0.0 0.00 2.41 0.03 100 1012.4
20260906134019 27 0 0.0 1.6 0.00 2.41 0.03 100 1012.2
20260906133520 26 0 0.0 1.6 0.00 2.41 0.03 100 1012.3
20260906133036 27 0 0.0 1.6 0.00 2.41 0.03 100 1012.3
20260906132520 26 0 0.0 1.6 0.00 2.41 0.03 100 1012.3
20260906132026 26 0 0.0 1.6 0.00 2.41 0.03 100 1012.3
20260906131540 27 0 0.0 0.0 0.00 2.41 0.03 100 1012.3
20260906131020 26 0 0.0 0.0 0.00 2.41 0.03 100 1012.2
20260906130519 26 0 0.0 1.6 0.00 2.41 0.03 100 1012.2
20260906130047 25 0 0.0 1.6 0.00 2.41 0.03 100 1012.3
20260906125522 25 0 0.0 0.0 0.00 2.41 0.03 100 1012.3
20260906125023 25 0 0.0 0.0 0.00 2.41 0.03 100 1012.4
20260906124542 25 0 0.0 0.0 0.00 2.41 0.03 100 1012.4
20260906124021 25 0 0.0 0.0 0.00 2.41 0.03 100 1012.4
20260906123520 24 0 0.0 0.0 0.00 2.41 0.03 100 1012.4
20260906123038 24 0 0.0 0.0 0.00 2.41 0.03 100 1012.5
20260906122521 23 0 0.0 0.0 0.00 2.41 0.03 100 1012.5
20260906122021 23 0 0.0 0.0 0.00 2.41 0.03 100 1012.4
20260906121541 23 0 0.0 0.0 0.00 2.41 0.03 100 1012.3
20260906121020 23 0 0.0 0.0 0.00 2.41 0.03 100 1012.3
20260906120520 23 0 0.0 0.0 0.00 2.41 0.03 100 1012.3
20260906120048 23 0 0.0 0.0 0.00 2.41 0.03 100 1012.3
20260906115521 22 0 0.0 0.0 0.00 2.41 0.03 100 1012.2
20260906115019 22 0 0.0 0.0 0.00 2.41 0.03 100 1012.1
20260906114541 22 0 0.0 0.0 0.00 2.41 0.03 100 1012.1
20260906114021 22 0 0.0 0.0 0.00 2.41 0.03 100 1012.0
20260906113522 22 0 0.0 0.0 0.00 2.41 0.03 100 1012.0
20260906113038 22 0 0.0 0.0 0.00 2.41 0.03 100 1011.8
20260906112520 22 0 0.0 0.0 0.00 2.41 0.03 100 1011.8
20260906112021 22 0 0.0 0.0 0.00 2.41 0.03 100 1011.8
20260906111548 22 0 0.0 0.0 0.00 2.41 0.03 100 1011.8
20260906111019 22 0 0.0 0.0 0.00 2.41 0.03 100 1011.7
20260906110520 22 0 0.0 0.0 0.00 2.41 0.03 100 1011.7
20260906110044 22 0 0.0 0.0 0.00 2.41 0.03 100 1011.6
20260906105519 22 0 0.0 0.0 0.00 2.41 0.03 100 1011.5
20260906105021 22 0 0.0 0.0 0.00 2.41 0.03 100 1011.4
20260906104545 22 0 0.0 0.0 0.00 2.41 0.03 100 1011.4
20260906104016 22 0 0.0 0.0 0.00 2.41 0.03 100 1011.3
20260906103522 22 0 0.0 0.0 0.00 2.41 0.03 100 1011.3
20260906103036 22 0 0.0 0.0 0.00 2.41 0.03 100 1011.2
20260906102521 22 0 0.0 0.0 0.00 2.41 0.03 100 1011.2
20260906102021 22 0 0.0 0.0 0.00 2.41 0.03 100 1011.1
20260906101541 22 0 0.0 0.0 0.00 2.41 0.03 100 1011.2
20260906101020 22 0 0.0 0.0 0.00 2.41 0.03 100 1011.1
20260906100520 22 0 0.0 0.0 0.00 2.41 0.03 100 1011.0
20260906100044 22 0 0.0 0.0 0.00 2.41 0.03 100 1011.0
20260906095519 22 0 0.0 0.0 0.00 2.41 0.03 100 1010.9
20260906095021 22 0 0.0 0.0 0.00 2.41 0.03 100 1010.7
20260906094605 22 0 0.0 0.0 0.00 2.41 0.03 100 1010.7
20260906094021 22 0 0.0 0.0 0.00 2.41 0.03 100 1010.7
20260906093519 22 0 0.0 0.0 0.00 2.41 0.03 100 1010.7
20260906093039 22 0 0.0 0.0 0.00 2.41 0.03 100 1010.8
20260906092525 22 0 0.0 0.0 0.00 2.41 0.03 100 1010.7
20260906092023 22 0 0.0 0.0 0.00 2.41 0.03 100 1010.7
20260906091545 22 0 0.0 0.0 0.00 2.41 0.03 100 1010.5
20260906091019 22 0 0.0 0.0 0.00 2.41 0.03 100 1010.4
20260906090521 22 0 0.0 0.0 0.00 2.41 0.03 100 1010.4
20260906090037 22 0 0.0 0.0 0.00 2.41 0.03 100 1010.4
20260906085520 22 0 0.0 0.0 0.00 2.41 0.03 100 1010.4
20260906085021 22 0 0.0 0.0 0.00 2.41 0.03 100 1010.5
20260906084542 22 0 0.0 0.0 0.00 2.41 0.03 100 1010.6
20260906084021 23 0 0.0 0.0 0.00 2.41 0.03 100 1010.6
20260906083521 23 0 0.0 0.0 0.00 2.41 0.03 100 1010.5
20260906083037 23 0 0.0 0.0 0.00 2.41 0.03 100 1010.5
20260906082519 23 0 0.0 0.0 0.03 2.41 0.03 100 1010.4
20260906082024 23 0 0.0 0.0 0.03 2.41 0.03 100 1010.5
20260906081548 23 0 0.0 0.0 0.03 2.41 0.03 100 1010.4
20260906081019 23 0 0.0 0.0 0.03 2.41 0.03 100 1010.4
20260906080523 23 0 0.0 0.0 0.03 2.41 0.03 100 1010.3
20260906080049 23 0 0.0 0.0 0.03 2.41 0.03 100 1010.3
20260906075521 23 0 0.0 0.0 0.03 2.41 0.03 100 1010.2
20260906075020 23 0 0.0 0.0 0.03 2.41 0.03 100 1010.1
20260906074538 23 0 0.0 0.0 0.03 2.41 0.03 100 1010.1
20260906074019 23 0 0.0 0.0 0.03 2.41 0.03 100 1010.3
20260906073520 23 0 0.0 0.0 0.03 2.41 0.03 100 1010.3
20260906073039 23 0 0.0 0.0 0.03 2.41 0.03 100 1010.3
20260906072521 23 0 0.0 0.0 0.00 2.39 0.00 100 1010.3
20260906072020 23 0 0.0 0.0 0.00 2.39 0.00 100 1010.3
20260906071540 23 0 0.0 0.0 0.00 2.39 0.00 100 1010.3
20260906071021 23 0 0.0 0.0 0.00 2.39 0.00 100 1010.3
20260906070524 23 0 0.0 0.0 0.00 2.39 0.00 100 1010.2
20260906070040 23 0 0.0 0.0 0.00 2.39 0.00 100 1010.3
20260906065519 23 0 0.0 0.0 0.00 2.39 0.00 100 1010.3
20260906065017 23 0 0.0 0.0 0.00 2.39 0.00 100 1010.3
20260906064538 23 0 0.0 0.0 0.00 2.39 0.00 100 1010.4
20260906064022 23 0 0.0 0.0 0.00 2.39 0.00 100 1010.5
20260906063521 23 0 0.0 0.0 0.00 2.39 0.00 100 1010.6
20260906063037 23 0 0.0 0.0 0.00 2.39 0.00 100 1010.7
20260906062525 23 0 0.0 0.0 0.00 2.39 0.00 100 1010.7
20260906062020 23 0 0.0 0.0 0.00 2.39 0.00 100 1010.8
20260906061543 23 0 0.0 0.0 0.00 2.39 0.00 100 1010.9
20260906061021 23 0 0.0 0.0 0.00 2.39 0.00 100 1011.0
20260906060521 23 0 0.0 0.0 0.00 2.39 0.00 100 1011.1
20260906060040 23 0 0.0 0.0 0.00 2.39 0.00 100 1011.2
20260906055519 23 0 0.0 0.0 0.00 2.39 0.00 100 1011.2
20260906055019 23 0 0.0 0.0 0.00 2.39 0.00 100 1011.2
20260906054537 23 0 0.0 0.0 0.00 2.39 0.00 100 1011.2
20260906054021 23 0 0.0 0.0 0.00 2.39 0.00 100 1011.3
20260906053519 23 0 0.0 0.0 0.00 2.39 0.00 100 1011.4
20260906053038 23 0 0.0 0.0 0.00 2.39 0.00 100 1011.4
20260906052521 23 0 0.0 0.0 0.00 2.39 0.00 100 1011.4
20260906052021 23 0 0.0 0.0 0.00 2.39 0.00 100 1011.4
20260906051540 23 0 0.0 0.0 0.00 2.39 0.00 100 1011.5
20260906051019 23 0 0.0 0.0 0.00 2.39 0.00 100 1011.7
20260906050519 23 0 0.0 0.0 0.00 2.39 0.00 100 1011.7
20260906050042 23 0 0.0 0.0 0.00 2.39 0.00 100 1011.9
20260906045520 23 0 0.0 0.0 0.00 2.41 0.00 100 1012.0
20260906045018 23 0 0.0 0.0 0.00 2.41 0.00 100 1012.1
20260906044542 23 0 0.0 0.0 0.00 2.41 0.00 100 1012.1
20260906044021 23 0 0.0 0.0 0.00 2.41 0.00 100 1012.0
20260906043522 23 0 0.0 0.0 0.00 2.41 0.00 100 1012.1
20260906043045 23 0 0.0 0.0 0.00 2.41 0.00 100 1012.2
20260906042518 23 0 0.0 0.0 0.00 2.41 0.00 100 1012.3
20260906042019 23 0 0.0 0.0 0.00 2.41 0.00 100 1012.2
20260906041541 23 0 0.0 0.0 0.00 2.41 0.00 100 1012.2
20260906041024 23 0 0.0 0.0 0.00 2.41 0.00 100 1012.2
20260906040523 23 0 0.0 0.0 0.00 2.41 0.00 100 1012.0
20260906040041 24 0 0.0 0.0 0.00 2.41 0.00 100 1012.1
20260906035523 24 0 0.0 0.0 0.00 2.41 2.41 100 1012.0
20260906035024 24 0 0.0 0.0 0.00 2.41 2.41 100 1012.2
20260906034543 24 0 0.0 0.0 0.00 2.41 2.41 100 1012.2
20260906034021 24 0 0.0 0.0 0.00 2.41 2.41 100 1012.2
20260906033519 24 0 0.0 0.0 0.00 2.41 2.41 100 1012.0
20260906033039 23 0 0.0 0.0 0.00 2.41 2.41 100 1012.2
20260906032524 23 0 0.0 0.0 0.00 2.41 2.41 100 1012.2
20260906032019 23 0 0.0 0.0 0.00 2.41 2.41 100 1012.2
20260906031548 23 0 0.0 0.0 0.00 2.41 2.41 100 1012.2
20260906031018 23 0 0.0 0.0 0.00 2.41 2.41 100 1012.1
20260906030520 24 0 0.0 0.0 0.00 2.41 2.41 100 1011.9
20260906030039 24 0 0.0 0.0 0.00 2.41 2.41 100 1012.0
20260906025521 24 0 0.0 0.0 0.00 2.41 2.41 100 1012.0
20260906025020 24 0 0.0 0.0 0.00 2.41 2.41 100 1011.9
20260906024542 24 0 0.0 0.0 0.00 2.41 2.41 100 1011.8
20260906024025 24 0 0.0 0.0 0.00 2.41 2.41 100 1011.9
20260906023521 24 0 0.0 0.0 0.00 2.41 2.41 100 1012.0
20260906023047 24 0 0.0 0.0 0.00 2.41 2.41 100 1011.9
20260906022521 24 0 0.0 0.0 0.00 2.41 2.41 100 1011.9
20260906022018 24 0 0.0 0.0 0.00 2.41 2.41 100 1011.9
20260906021540 24 0 0.0 0.0 0.00 2.41 2.41 100 1011.9
20260906021019 24 0 0.0 1.6 0.00 2.41 2.41 100 1011.9
20260906020520 24 0 0.0 1.6 0.00 2.41 2.41 100 1011.9
20260906020049 24 0 0.0 0.0 0.00 2.41 2.41 100 1012.0
20260906015526 24 0 0.0 0.0 0.00 2.44 2.41 100 1011.8
20260906015021 24 0 0.0 0.0 0.00 2.44 2.41 100 1011.9
20260906014551 24 0 0.0 0.0 0.00 2.44 2.41 100 1011.7
20260906014022 24 0 0.0 0.0 0.00 2.44 2.41 100 1011.7
20260906013520 24 0 0.0 0.0 0.00 2.44 2.41 100 1011.6
20260906013041 24 0 0.0 0.0 0.00 2.44 2.41 100 1011.5
20260906012520 24 0 0.0 0.0 0.00 2.44 2.41 100 1011.5
20260906012020 24 0 0.0 0.0 0.00 2.44 2.41 100 1011.4
20260906011540 25 0 0.0 0.0 0.00 2.44 2.41 100 1011.5
20260906011022 25 0 0.0 0.0 0.00 2.44 2.41 100 1011.5
20260906010520 25 0 0.0 0.0 0.00 2.44 2.41 100 1011.5
20260906010041 25 0 0.0 0.0 0.00 2.44 2.41 100 1011.3
20260906005521 25 0 0.0 0.0 0.00 2.64 2.41 100 1011.3
20260906005018 25 0 0.0 0.0 0.00 2.64 2.41 100 1011.2
20260906004537 25 0 0.0 0.0 0.00 2.64 2.41 100 1011.1
20260906004024 25 0 0.0 0.0 0.00 2.64 2.41 100 1011.1
20260906003524 25 0 0.0 0.0 0.00 2.64 2.41 100 1011.1
20260906003043 25 0 0.0 0.0 0.00 2.64 2.41 100 1011.1
20260906002521 25 0 0.0 0.0 0.00 2.64 2.41 100 1011.1
20260906002021 25 0 0.0 0.0 0.00 2.64 2.41 100 1011.1
20260906001539 25 0 0.0 0.0 0.00 2.64 2.41 100 1011.2
20260906001019 25 0 0.0 0.0 0.00 2.64 2.41 100 1011.1
20260906000519 25 0 0.0 0.0 0.00 2.64 2.41 100 1011.1
20260906000041 25 0 0.0 0.0 0.00 2.64 2.41 100 1011.1
20260905235520 25 0 0.0 0.0 0.00 2.74 2.41 100 1010.9
20260905235019 25 0 0.0 0.0 0.00 2.74 2.41 100 1011.1
20260905234537 25 0 0.0 0.0 0.00 2.74 2.41 100 1011.2
20260905234031 25 0 0.0 0.0 0.00 2.74 2.41 100 1011.3
20260905233520 25 0 0.0 0.0 0.00 2.74 2.41 100 1011.4
20260905233042 25 0 0.0 0.0 0.00 2.74 2.41 100 1011.3
20260905232521 25 0 0.0 0.0 0.00 2.74 2.41 100 1011.4
20260905232021 25 0 0.0 0.0 0.00 2.74 2.41 100 1011.4
20260905231537 25 0 0.0 0.0 0.00 2.74 2.41 100 1011.4
20260905231020 25 0 0.0 0.0 0.00 2.74 2.41 100 1011.4
20260905230522 25 0 0.0 0.0 0.00 2.74 2.41 100 1011.4
20260905230045 25 0 0.0 0.0 0.00 2.74 2.41 100 1011.4
20260905225520 25 0 0.0 0.0 0.00 2.74 2.41 100 1011.4
20260905225020 25 0 0.0 0.0 0.00 2.74 2.41 100 1011.3
20260905224537 25 0 0.0 0.0 0.00 2.74 2.41 100 1011.3
20260905224019 25 0 0.0 0.0 0.03 2.74 2.41 100 1011.2
20260905223521 25 0 0.0 0.0 0.03 2.74 2.41 100 1010.9
20260905223043 25 0 0.0 0.0 0.05 2.74 2.41 100 1010.8
20260905222521 25 0 0.0 0.0 0.05 2.74 2.41 100 1010.9
20260905222027 25 0 0.0 0.0 0.08 2.74 2.41 100 1010.9
20260905221547 25 0 0.0 0.0 0.08 2.74 2.41 100 1010.9
20260905221020 25 0 0.0 0.0 0.08 2.74 2.41 100 1010.9
20260905220520 25 0 0.0 0.0 0.08 2.74 2.41 100 1011.0
20260905220041 25 0 0.0 0.0 0.10 2.74 2.41 100 1011.1
20260905215524 25 0 0.0 0.0 0.10 2.74 2.41 100 1011.2
20260905215018 25 0 0.0 0.0 0.13 2.74 2.41 100 1011.2
20260905214539 25 0 0.0 0.0 0.13 2.74 2.41 100 1011.4
20260905214021 25 0 0.0 0.0 0.13 2.72 2.39 100 1011.4
20260905213519 25 0 0.0 0.0 0.13 2.72 2.39 100 1011.3
20260905213040 25 0 0.0 0.0 0.13 2.67 2.36 100 1011.3
20260905212520 25 0 0.0 0.0 0.13 2.67 2.36 100 1011.3
20260905212026 25 0 0.0 0.0 0.13 2.64 2.34 100 1011.3
20260905211545 25 0 0.0 0.0 0.13 2.64 2.34 100 1011.4
20260905211022 25 0 0.0 0.0 0.15 2.64 2.34 100 1011.5
20260905210518 25 0 0.0 0.0 0.15 2.64 2.34 100 1011.4
20260905210055 25 0 0.0 0.0 0.13 2.64 2.31 100 1011.5
20260905205519 25 0 0.0 0.0 0.15 2.64 2.31 100 1011.6
20260905205020 25 0 0.0 0.0 0.13 2.62 2.29 100 1011.8
20260905204542 25 0 0.0 0.0 0.15 2.62 2.29 100 1011.9
20260905204019 25 0 0.0 0.0 0.13 2.59 2.26 100 1012.0
20260905203518 24 0 0.0 0.0 0.13 2.59 2.26 100 1012.0
20260905203038 24 0 0.0 0.0 0.10 2.57 2.24 100 1011.9
20260905202520 24 0 0.0 0.0 0.13 2.57 2.24 100 1012.0
20260905202020 24 0 0.0 0.0 0.10 2.54 2.21 100 1012.1
20260905201539 24 0 0.0 0.0 0.10 2.54 2.21 100 1012.2
20260905201025 24 0 0.0 0.0 0.08 2.51 2.18 100 1012.3
20260905200521 24 0 0.0 0.0 0.08 2.51 2.18 100 1012.6
20260905200055 24 0 0.0 0.0 0.08 2.51 2.18 100 1012.6
20260905195521 24 0 0.0 0.0 0.05 2.49 2.16 100 1012.5
20260905195021 24 0 0.0 0.0 0.05 2.49 2.16 100 1012.6
20260905194540 24 0 0.0 1.6 0.05 2.46 2.13 100 1012.5
20260905194019 24 0 0.0 1.6 0.13 2.46 2.13 100 1012.5
20260905193518 24 0 0.0 0.0 0.25 2.46 2.13 100 1012.6
20260905193035 24 0 0.0 0.0 0.51 2.44 2.11 100 1012.6
20260905192521 24 0 0.0 0.0 1.09 2.44 2.11 100 1012.6
20260905192020 24 0 0.0 0.0 1.47 2.44 2.11 100 1012.5
20260905191540 24 0 0.0 0.0 1.52 2.44 2.11 100 1012.1
20260905191019 23 0 0.0 0.0 1.52 2.44 2.11 100 1012.0